User: anonymous   Login
Location: Unspecified
(0.0000°N, 0.0000°E)
Time: 16:54:11
(UTC+01:00)
Language:

Cosmos 1125 Rocket - Orbit

View from above orbital plane
View from above orbital plane
View from above satellite
View from above satellite

Ground track
Ground track

The orbit data is extracted from the following two-line orbital elements,

1 11511U 79078B   15057.58934235  .00000136  00000-0  55141-4 0  9997
2 11511 074.0353 061.9675 0015131 156.3012 203.8842 14.36567295857764
Epoch (UTC): 26 February 2015 14:08:39
Eccentricity: 0.0015131
inclination: 74.0353°
perigee height: 759 km
apogee height: 780 km
right ascension of ascending node: 61.9675°
argument of perigee: 156.3012°
revolutions per day: 14.36567295
mean anomaly at epoch: 203.8842°
orbit number at epoch: 85776

The dashed part of the orbit path shows where the satellite is in the earth's shadow,  

DLR